Location: Borojevi?i
(45.0486°N, 16.2297°E)
Time: 04:52:41
(UTC+00:00)

Cosmos 1092 Rocket - Pass Details

Date: 08 August 2020
Orbit: 953 x 996 km, 82.9° (Epoch: 23 September)

Event Time Altitude Azimuth Distance (km) Brightness Sun altitude
Rises 23:43:11 0° 353° (N) 3,691 8.1 -28.4°
Reaches altitude 10° 23:45:44 10° 356° (N) 2,733 7.2 -28.3°
Maximum altitude 23:51:59 71° 80° (E) 1,020 4.0 -28.1°
Enters shadow 23:52:48 63° 128° (SE) 1,072 4.0 -28.0°
